Location: Monteux
(44.0348°N, 4.9972°E)
Time: 20:06:10
(UTC+00:00)

YAOGAN 6 - Visible Passes

Search period start: 13 April 2021 00:00
Search period end: 23 April 2021 00:00
Orbit: 464 x 503 km, 97.0° (Epoch: 13 April)

Date Brightness Start Highest point End Pass type
(mag) Time Alt. Az. Time Alt. Az. Time Alt. Az.
14 Apr 5.8 04:17:33 10° NE 04:19:38 15° E 04:21:44 10° SE visible
18 Apr 5.9 04:12:33 10° ENE 04:14:19 13° E 04:16:06 10° ESE visible
22 Apr 6.0 04:07:38 10° ENE 04:08:59 12° E 04:10:19 10° ESE visible
